RH
93 94 96 94 92 92 94 95 92 94 93 93 90 92 87 89 90 90 83 86 99 98 92 85 79 88 90 98 98 88 93 89 96 96 99 94 100 90 96 78 79 83 91 99 98 99 91 38 40 70 79 93 87 71
89 92 95 95 93 89 89 88 87 88 92 91 87 89 89 88 90 86 90 86 97 99 95 91 81 78 76 69 85 98 89 93 95 97 98 96 96 100 92 92 66 90 77 88 89 71 53 52 70 82 96 94 96 75
88 86 86 90 88 87 87 87 86 79 90 81 99 94 87 87 85 89 96 92 100 100 91 98 96 75 77 92 88 97 100 84 99 91 97 96 96 95 96 92 91 80 83 96 94 78 81 73 91 96 97 96 84 71
92 91 89 86 85 86 85 85 83 87 88 88 94 89 87 87 83 98 96 84 99 100 98 88 65 72 81 91 97 90 87 99 99 99 97 96 94 92 96 88 92 83 95 96 95 93 94 94 96 96 96 97 73 62
95 94 93 93 93 92 90 89 90 89 88 92 88 88 76 79 97 100 97 90 93 92 99 94 76 88 87 87 90 99 99 98 97 97 97 96 94 96 98 97 97 97 96 96 95 96 97 94 96 95 96 97 95 95
95 94 94 95 96 94 92 91 93 92 94 91 90 82 79 98 100 98 99 99 100 100 98 98 80 95 81 84 89 95 100 97 97 97 96 97 98 97 96 96 91 96 97 97 95 99 99 96 97 94 95 96 96 95
97 96 94 95 97 97 94 97 93 94 93 91 92 89 93 83 100 99 88 74 98 97 97 96 94 91 85 88 94 97 100 99 98 98 97 97 96 96 97 99 96 96 91 90 96 96 97 94 98 89 93 90 79 75
80 86 94 95 94 97 100 100 97 95 94 86 91 90 92 97 100 100 100 100 93 97 98 98 96 91 84 95 95 99 98 98 97 97 96 97 95 98 99 80 96 98 92 91 94 97 94 87 81 84 75 76 83 86
91 89 96 95 94 94 100 99 98 93 81 78 91 92 96 99 99 99 99 99 100 97 98 97 100 95 92 99 99 97 96 96 93 99 99 97 97 97 82 82 94 94 93 92 71 73 79 82 84 78 78 88 92 91
100 94 91 97 95 94 96 100 98 93 78 95 88 98 98 99 99 98 99 98 97 98 98 97 95 96 92 98 96 97 98 98 97 93 96 99 95 80 84 92 94 95 95 82 85 84 94 93 92 91 86 91 90 95
95 94 96 98 100 95 94 100 100 98 100 96 99 98 99 99 98 98 97 96 96 96 97 97 96 98 96 96 96 96 97 97 98 89 95 97 96 86 72 92 92 94 92 86 83 84 87 86 93 94 94 89 82 84
88 90 87 94 98 96 96 99 100 100 98 93 92 98 98 97 96 94 97 95 97 93 95 96 96 97 97 97 96 95 96 95 96 94 97 98 75 67 75 93 95 95 91 95 94 91 89 86 82 88 95 91 83 79
86 78 83 91 98 96 97 100 100 99 94 98 97 96 95 95 96 96 95 96 97 96 95 98 97 97 96 95 96 96 96 96 92 98 94 84 71 73 94 96 92 82 88 92 96 88 81 86 83 81 91 85 83 86
97 89 76 95 93 96 98 100 100 100 93 97 95 97 90 97 96 89 90 94 96 95 96 96 97 95 97 96 95 96 90 94 96 100 87 86 87 87 95 95 90 94 93 95 96 91 86 86 90 84 79 80 82 86
99 96 83 99 97 99 98 100 99 94 95 96 91 91 98 88 95 96 96 98 96 96 97 97 96 95 98 96 96 94 94 96 88 81 80 92 88 93 97 96 93 91 94 98 97 96 92 90 88 91 86 82 81 79
98 95 98 98 96 98 100 100 99 98 98 95 98 92 96 96 97 99 97 97 98 97 96 94 100 99 99 96 96 94 95 91 82 86 91 95 89 95 96 94 91 88 87 89 90 84 85 86 86 85 89 82 81 82
99 98 99 99 98 100 99 98 99 98 96 97 95 97 94 96 92 96 97 95 96 96 100 99 100 93 95 100 100 88 91 86 92 94 93 93 90 88 90 96 91 86 87 85 85 83 80 78 81 88 92 76 80 84
99 100 100 100 99 99 98 98 95 96 97 97 96 96 96 97 97 100 100 98 96 97 98 99 93 100 99 99 91 84 93 94 90 88 89 91 92 94 95 93 88 82 81 80 77 78 79 84 90 86 75 78 82 83
100 100 99 100 88 85 96 97 97 96 97 98 98 99 98 98 98 98 100 99 97 96 96 98 100 98 93 93 94 96 97 96 93 92 89 87 87 92 93 91 86 84 80 80 82 83 77 72 72 72 73 81 86 83
99 100 100 93 78 82 92 95 84 92 99 96 95 98 99 100 99 98 96 96 97 97 98 99 96 93 92 95 97 97 96 96 97 96 92 92 82 90 91 90 85 81 80 78 76 79 78 78 74 73 80 84 89 85
96 100 98 84 82 73 94 99 95 98 99 97 100 99 100 97 100 100 100 96 96 98 100 95 95 91 90 96 96 97 97 97 95 93 96 96 84 86 86 86 83 80 81 84 85 88 86 78 67 68 74 90 89 87
99 98 96 84 81 83 92 96 97 96 94 99 99 98 100 100 100 100 97 97 99 95 96 95 96 98 96 96 94 85 88 98 98 96 93 94 95 94 93 90 89 87 84 83 82 81 80 83 80 72 73 73 86 94
84 77 76 69 80 84 97 88 94 97 95 98 100 100 100 100 99 95 100 96 93 92 89 96 96 96 92 72 74 63 69 94 94 92 93 95 95 95 83 85 84 86 90 82 70 69 69 70 79 88 77 91 90 96
60 76 87 88 91 93 94 100 99 100 100 100 100 99 97 100 98 100 98 92 87 95 96 95 89 74 74 78 80 66 90 99 95 95 95 96 95 89 82 82 82 78 72 65 67 69 67 69 89 98 83 94 95 92
67 70 84 96 100 95 100 100 100 98 98 99 99 98 98 98 98 99 94 92 97 97 95 88 83 82 84 78 81 81 89 98 95 94 89 88 87 89 91 86 82 76 73 70 73 74 71 72 90 97 95 96 95 95
74 83 77 100 98 91 98 95 98 94 96 97 96 97 98 98 99 92 94 97 97 96 95 92 93 92 87 79 85 87 91 94 97 100 87 89 87 79 94 96 96 79 71 70 66 74 78 80 90 99 99 99 96 97
84 92 97 93 98 94 96 96 94 97 96 96 96 97 96 98 94 94 95 94 94 96 93 97 100 99 95 94 96 95 91 89 99 98 89 84 78 81 73 79 89 60 56 62 68 69 70 79 87 93 96 97 97 96
94 99 93 94 99 98 95 98 98 97 95 97 94 96 95 93 95 95 96 96 86 90 93 88 90 98 100 100 100 100 91 90 93 90 90 85 81 77 72 67 62 60 55 58 66 69 65 67 77 88 93 92 94 95
86 97 94 95 100 100 98 95 95 96 94 96 96 96 96 93 96 95 86 80 84 91 94 98 91 94 88 90 96 96 95 100 95 88 87 92 92 74 72 71 70 69 60 68 82 70 72 73 79 84 86 88 92 95
83 97 95 98 96 94 94 97 97 96 95 94 94 95 95 94 97 85 78 83 95 100 100 99 99 100 100 100 99 94 100 100 100 99 100 97 93 82 80 81 83 69 79 83 83 95 98 97 98 87 86 89 92 93
96 94 94 96 96 97 98 95 95 94 95 96 95 95 95 95 97 83 81 83 85 89 100 100 95 95 100 100 100 100 97 96 90 94 100 97 92 83 83 90 87 87 88 80 88 90 93 89 82 85 88 92 95 96
97 98 98 98 95 97 97 96 97 97 98 98 97 96 94 94 91 98 82 82 86 94 100 100 100 100 99 100 100 100 100 100 95 92 87 89 83 85 89 96 94 96 85 90 90 79 75 72 77 81 86 92 95 97
94 98 100 99 98 97 98 97 97 91 92 95 94 98 96 92 75 90 86 86 92 99 100 100 97 97 96 98 100 99 100 100 100 100 100 100 96 86 95 98 100 92 90 94 87 78 75 72 75 81 86 90 94 98
Wind_Speed
32 32 32 32 33 33 32 31 31 30 29 27 26 23 21 21 21 19 15 14 12 4 5 8 7 6 3 3 3 3 3 2 1 2 2 4 3 4 1 4 4 4 3 3 2 1 6 5 3 5 3 1 2 2
34 33 33 33 33 33 34 34 33 32 31 29 26 22 22 22 22 16 12 15 15 7 4 8 16 23 23 22 3 4 3 4 3 1 1 3 3 1 5 8 2 3 7 3 6 5 1 3 2 2 3 4 4 3
35 34 34 33 34 34 33 32 32 36 32 28 25 22 23 23 22 20 16 12 8 3 5 2 6 18 20 26 26 5 2 6 4 5 3 4 5 2 2 5 2 3 2 3 1 1 2 3 3 1 2 3 2 1
34 33 33 31 30 30 31 31 31 30 26 26 21 22 21 21 20 17 12 13 12 2 3 5 6 6 5 6 10 22 9 3 2 1 3 4 3 3 2 3 4 3 4 3 4 3 2 1 2 1 1 1 2 3
34 34 33 33 33 31 29 29 28 26 25 21 21 22 21 19 14 13 8 13 14 5 3 3 6 2 1 4 6 9 5 3 2 2 3 3 2 1 2 1 3 0 0 1 1 4 1 3 4 4 1 1 3 4
37 37 37 35 33 31 30 27 24 22 20 19 19 17 15 10 6 3 1 4 10 9 2 3 2 2 1 1 1 1 2 2 2 2 2 2 1 1 2 2 2 1 1 1 3 2 2 2 1 2 2 1 4 4
41 39 38 36 34 32 29 26 22 20 19 16 17 14 11 10 11 5 3 6 12 4 1 4 4 1 2 2 2 1 1 1 1 2 2 1 1 3 2 2 2 2 2 2 1 2 1 3 2 5 4 6 10 9
43 40 37 34 33 32 29 24 20 19 17 16 13 10 8 7 9 6 6 9 14 4 2 2 4 3 2 1 1 1 0 1 2 1 2 1 3 1 3 5 3 2 3 2 1 1 2 2 4 5 5 5 6 6
42 40 35 33 31 30 28 23 18 17 15 11 7 5 6 4 3 3 7 8 8 3 2 2 3 3 1 1 0 2 1 1 2 0 1 2 1 4 5 5 4 4 4 4 3 4 4 4 4 4 4 4 4 3
43 41 39 33 29 26 27 24 16 14 9 7 4 3 1 4 10 10 2 1 2 1 1 2 0 2 2 1 1 1 1 0 1 3 1 1 3 4 4 4 3 3 5 7 4 1 2 0 3 1 2 1 2 2
44 42 39 34 27 25 21 19 16 12 14 5 2 1 5 7 2 1 1 1 1 2 2 2 3 2 2 1 1 1 1 1 2 3 2 2 3 3 4 2 1 2 5 4 3 3 5 5 6 4 1 1 4 5
42 39 35 31 25 22 19 19 17 16 9 9 10 7 3 2 2 2 1 2 2 3 2 2 2 3 1 1 2 2 1 2 2 1 3 3 3 2 4 3 1 3 5 3 2 4 4 6 10 6 4 5 5 5
35 31 28 24 21 19 15 22 19 20 19 11 3 2 2 2 2 4 4 3 2 3 3 1 1 1 2 2 2 2 2 2 1 2 3 4 3 2 3 2 3 4 3 5 3 4 7 7 7 6 6 4 6 7
33 27 23 20 18 17 19 22 32 28 7 2 4 3 4 2 4 4 3 2 1 1 3 2 1 2 1 2 1 1 1 2 1 2 4 2 3 3 3 2 4 4 3 4 4 6 8 8 5 4 6 7 7 7
22 20 16 17 16 19 26 34 30 18 4 3 4 3 5 2 0 1 2 2 1 2 2 2 2 2 2 2 0 2 2 3 4 3 2 3 3 3 3 3 4 4 4 4 5 6 8 8 7 5 7 7 5 5
11 8 11 17 19 26 30 35 17 4 3 3 2 2 1 2 1 0 3 2 2 2 2 3 2 3 2 3 1 5 3 5 3 2 2 1 2 3 4 4 5 7 9 9 10 8 9 9 8 6 7 7 6 6
11 2 18 22 26 32 38 9 4 2 3 3 2 1 3 1 3 3 2 2 4 3 2 3 3 6 1 2 3 3 4 2 2 2 1 2 3 4 4 4 6 10 11 11 10 10 9 9 7 6 5 7 8 6
8 18 25 32 41 29 6 4 3 2 2 2 2 2 1 0 2 1 1 3 3 2 3 3 3 2 4 4 3 2 3 2 1 2 2 3 3 4 6 6 11 15 14 14 12 12 11 11 9 9 8 5 6 7
22 32 34 30 15 6 3 3 3 3 1 0 1 1 1 1 1 1 1 2 3 3 3 2 2 3 3 3 2 2 2 1 2 2 2 4 7 6 7 10 12 13 14 15 14 14 16 14 12 9 8 8 7 5
33 23 20 16 7 4 3 2 4 3 2 0 2 2 1 0 2 2 1 1 2 2 1 3 4 3 3 2 2 2 3 2 1 2 3 2 4 5 7 7 8 11 12 12 11 10 10 9 11 11 9 10 9 8
19 16 13 9 7 10 4 2 3 1 0 2 2 1 1 2 2 2 2 1 1 3 3 3 3 3 4 4 6 8 4 3 4 4 2 2 2 6 7 10 10 12 9 10 8 10 12 12 12 11 12 11 10 7
5 7 4 6 5 4 4 6 2 1 2 0 2 2 2 1 2 2 2 1 3 3 3 2 2 1 1 2 3 10 12 13 12 10 11 10 2 2 2 8 10 6 10 11 13 11 15 14 9 9 10 9 8 7
4 3 4 6 4 4 1 5 3 4 2 2 2 3 3 2 2 2 1 2 3 3 3 1 2 3 4 6 8 11 13 10 5 8 10 8 8 8 8 11 15 11 6 13 16 15 13 9 10 10 9 8 9 7
3 5 4 3 2 1 2 4 2 3 3 3 2 3 2 2 1 2 2 2 2 1 0 3 5 3 3 2 2 5 9 10 9 10 10 7 2 6 11 11 14 17 15 7 15 15 12 11 10 12 12 11 9 7
4 4 3 3 2 4 4 3 4 3 1 1 2 2 2 1 1 1 2 2 1 1 2 4 3 2 4 5 2 6 8 9 8 6 11 7 5 3 3 5 8 12 14 14 10 14 13 13 14 14 13 12 10 9
0 3 2 3 2 2 3 0 2 2 2 1 3 1 0 1 0 4 2 1 2 2 2 4 5 6 5 5 6 5 10 14 15 5 6 4 8 5 4 3 2 7 15 17 14 13 14 14 15 14 13 11 9 8
1 3 2 2 1 2 1 1 1 1 2 3 2 2 1 1 3 1 1 1 2 4 12 13 11 9 8 12 14 15 15 13 11 12 14 12 6 9 7 5 5 6 5 16 16 14 15 15 15 14 13 12 11 9
3 3 3 2 0 0 2 1 3 3 2 1 3 2 3 4 2 1 2 4 11 14 13 13 11 10 16 19 19 16 13 7 9 5 4 3 1 2 5 7 6 5 4 8 14 12 11 12 13 13 12 11 10 9
1 1 2 1 2 1 4 4 3 1 1 1 2 2 2 1 1 2 5 13 13 9 13 15 17 19 15 12 6 6 6 7 8 4 3 2 3 6 2 2 3 3 6 11 11 9 7 8 9 9 9 9 9 9
2 1 2 1 2 3 2 0 1 1 1 1 1 1 1 1 2 5 14 15 13 11 11 13 14 11 11 13 12 11 5 3 7 6 2 2 6 13 7 3 3 8 12 13 14 14 12 12 12 12 12 11 12 11
1 1 0 2 2 1 1 1 2 1 1 1 1 1 1 1 1 1 12 16 13 10 10 15 18 13 12 15 10 8 4 1 9 11 11 11 13 11 3 6 7 11 13 15 16 15 13 12 10 12 11 11 10 8
1 2 2 1 2 2 2 2 1 0 1 1 0 1 2 1 1 1 5 18 18 13 11 16 14 14 16 11 8 8 10 16 16 14 11 10 11 5 5 7 11 12 13 14 13 11 10 9 10 9 9 10 10 8
2 2 1 1 3 3 2 2 3 3 2 1 1 0 1 1 2 2 3 13 15 12 16 21 20 15 10 7 6 7 10 14 11 11 9 8 10 3 7 9 12 12 13 13 11 9 8 7 8 8 7 7 7 7
Wind_Direction
298 297 294 293 292 291 289 288 288 285 282 278 278 276 275 276 272 256 262 254 228 264 246 192 197 208 222 185 214 259 342 338 250 236 172 246 206 230 95 231 194 206 184 224 75 66 288 162 80 179 193 351 182 213
298 297 296 295 293 291 291 289 288 288 287 282 279 277 278 278 273 256 257 258 248 238 266 271 268 254 247 231 207 185 219 174 236 155 253 256 262 208 202 269 257 272 200 192 194 216 294 232 181 158 135 168 220 185
296 296 295 296 295 292 290 290 293 291 289 288 283 278 280 278 271 256 249 255 233 264 277 343 237 258 248 242 238 232 245 212 231 200 221 231 230 182 228 245 227 265 145 224 327 238 356 344 359 63 218 185 153 161
295 294 292 292 295 294 291 290 290 292 290 289 283 281 276 276 278 254 246 255 229 273 264 275 277 263 231 221 212 213 246 246 240 240 265 258 244 187 232 261 224 214 162 235 251 24 61 79 167 278 220 106 117 98
293 291 290 289 289 290 293 291 289 291 290 288 282 278 278 280 273 255 253 256 246 196 256 265 271 257 194 235 222 226 235 208 200 229 226 238 261 306 231 309 244 68 334 284 287 1 287 287 15 20 63 193 163 139
291 290 289 289 288 288 287 290 290 288 287 279 280 279 283 278 246 181 320 242 228 222 304 329 288 27 88 131 150 126 165 192 219 234 242 252 216 245 277 266 241 221 203 180 258 291 245 278 1 355 295 92 109 118
292 291 290 289 288 286 283 283 286 281 278 276 274 271 271 258 234 175 201 158 175 164 74 318 309 333 41 52 26 31 63 225 170 262 248 294 342 357 276 251 176 205 190 193 326 319 301 18 326 356 74 70 96 86
295 293 291 290 287 284 283 279 277 273 269 270 263 266 264 278 231 196 194 185 187 151 137 248 265 349 26 358 341 343 27 11 318 260 343 30 332 57 260 238 213 198 162 128 323 42 176 116 59 57 72 88 90 92
290 290 287 286 285 282 275 267 264 262 261 260 264 248 271 194 153 136 161 196 202 155 193 162 176 263 7 321 249 12 74 11 299 68 279 78 274 230 227 218 224 215 185 188 114 95 105 111 113 91 75 54 100 119
286 286 286 282 279 279 277 260 244 243 237 201 230 127 181 150 131 143 98 121 22 358 241 214 24 272 82 343 319 63 26 186 10 256 7 132 260 246 225 213 202 217 169 136 97 7 48 118 171 175 200 193 165 164
286 285 283 279 272 269 266 253 218 202 174 168 133 133 126 150 108 53 95 121 327 297 210 242 186 192 330 108 229 20 199 45 38 269 110 289 277 250 169 195 351 179 164 175 166 184 178 169 172 168 162 186 163 162
290 286 282 274 263 258 247 225 194 178 164 170 135 113 114 73 48 94 245 331 182 235 235 190 226 185 298 82 89 339 118 38 256 36 61 276 253 198 181 184 160 128 138 138 163 172 173 166 164 161 159 159 165 172
284 281 278 263 247 243 243 189 182 170 148 124 80 85 102 332 62 168 216 258 269 202 184 160 46 147 12 50 59 73 76 229 5 35 243 236 270 214 189 139 129 142 135 124 97 110 138 134 146 152 156 165 167 158
273 266 265 246 229 221 198 175 155 152 114 123 149 182 170 235 239 193 189 193 183 119 148 119 73 118 214 66 132 99 273 31 353 320 241 253 248 252 186 165 133 189 165 150 139 146 146 149 146 145 169 174 176 176
256 251 250 221 196 180 171 160 155 142 122 140 119 210 207 206 72 218 175 96 93 118 107 75 47 78 352 87 135 78 21 260 221 239 239 252 251 206 203 185 180 176 171 165 163 159 163 159 159 156 162 172 192 200
217 227 214 173 166 165 157 147 141 95 84 117 93 91 49 84 306 196 180 155 142 113 85 56 105 54 277 149 109 212 173 229 244 221 241 235 255 241 227 203 198 184 183 179 180 177 172 171 176 188 183 193 213 224
136 80 159 152 152 151 152 118 99 73 134 136 268 136 142 174 177 189 136 150 141 93 175 113 104 220 100 36 253 200 215 241 262 284 267 230 250 258 240 202 188 184 185 183 177 179 180 176 178 175 196 216 223 229
99 132 138 134 129 122 74 58 85 88 140 222 143 202 171 57 135 120 166 137 132 138 122 211 132 153 201 201 238 244 257 281 246 269 273 265 262 265 248 211 193 194 186 187 186 181 179 178 191 219 213 212 220 232
120 127 132 127 117 95 85 45 33 115 190 66 49 10 76 85 66 161 124 132 134 152 115 67 132 209 231 217 231 271 270 247 265 273 263 254 260 261 254 217 197 189 188 183 183 192 201 203 213 220 213 210 225 232
104 99 112 111 90 78 72 21 9 91 146 188 47 30 71 28 306 359 32 143 126 114 38 217 220 220 198 234 205 257 280 236 205 279 273 241 244 234 223 196 192 185 182 191 199 201 203 213 224 220 220 221 226 240
88 88 98 68 52 57 77 0 50 72 101 81 310 51 324 9 25 16 333 307 126 209 237 225 229 245 239 266 309 291 281 235 239 237 264 290 231 226 223 212 200 179 177 185 188 207 208 216 226 221 218 222 235 246
46 50 62 35 73 51 76 17 106 0 64 184 37 27 44 33 334 301 292 77 237 241 206 203 243 242 301 284 307 325 303 294 283 270 275 269 225 211 214 196 175 192 195 197 198 205 218 227 225 217 220 225 224 232
59 21 62 32 70 43 304 360 67 1 77 302 17 31 350 343 242 337 281 231 263 248 247 277 332 318 284 300 325 331 328 306 288 277 272 267 263 247 209 200 199 191 191 215 220 223 226 223 209 210 200 195 203 209
28 54 58 54 51 195 3 17 23 40 34 35 52 326 310 241 292 56 255 252 252 261 32 29 0 324 307 282 305 325 332 332 310 297 288 266 237 236 222 222 215 216 218 229 215 217 218 208 197 188 192 196 198 202
51 329 73 341 341 63 42 6 348 43 280 228 49 314 299 125 346 268 242 268 299 43 33 353 338 321 300 298 287 303 325 353 332 311 304 256 216 156 172 208 220 225 217 207 194 200 203 197 193 195 197 200 201 205
179 297 86 195 287 127 187 153 215 224 202 242 230 134 85 97 331 248 228 348 341 342 355 337 319 313 302 284 300 308 309 320 325 283 300 332 240 210 183 171 196 237 216 216 210 197 195 193 193 195 200 198 203 199
249 268 283 222 178 121 34 8 10 184 224 217 186 163 141 246 249 223 106 39 339 342 319 312 297 282 285 297 295 296 304 301 295 284 302 311 269 224 235 201 211 247 237 210 207 208 200 195 197 200 201 200 206 205
184 171 168 236 121 18 175 208 197 222 235 177 117 198 206 213 260 48 24 347 330 326 326 330 328 312 301 298 300 299 304 303 313 295 295 347 41 200 234 245 250 256 235 207 201 198 199 200 197 195 195 196 196 194
130 259 104 341 327 241 215 199 222 178 12 183 209 247 243 61 55 21 351 339 332 332 350 349 346 350 355 357 340 323 311 325 351 14 12 328 355 30 306 264 214 210 176 158 166 177 177 180 183 183 180 175 169 171
251 183 108 146 190 238 230 165 219 323 323 330 318 297 164 99 111 42 16 9 6 350 345 342 338 342 350 358 349 10 11 34 23 16 346 326 312 323 318 226 212 164 157 156 144 133 134 142 140 145 155 158 165 171
122 124 103 211 252 266 21 348 329 316 338 328 358 284 348 62 126 77 20 15 6 353 348 352 351 357 349 353 354 350 340 12 341 339 336 317 320 322 274 189 179 170 164 158 156 154 151 155 156 156 161 168 172 187
42 175 164 253 283 314 17 60 357 22 340 2 336 5 346 21 313 304 353 4 2 357 349 342 333 324 335 330 324 314 300 307 315 316 320 329 331 313 182 177 176 173 167 162 160 156 156 159 165 174 178 186 195 203
45 42 38 4 345 355 331 55 18 340 16 4 298 272 206 181 243 264 4 8 357 336 341 336 331 324 324 328 339 349 346 341 334 317 297 298 307 230 175 172 173 172 169 165 163 161 163 170 178 187 200 212 222 231